Printer-friendly version
Follow the MPC on Twitter Follow the MPC on Facebook The MPC blog
Minor Planet Center

MPEC 2010-N50 : 2010 NT1

The following Minor Planet Electronic Circular may be linked-to from your own Web pages, but must not otherwise be redistributed electronically.

A form allowing access to any MPEC is at the bottom of this page.


Read MPEC 2010-N49 Read MPEC 2010-N51


M.P.E.C. 2010-N50                                Issued 2010 July 11, 17:16 UT

     The Minor Planet Electronic Circulars contain information on unusual
         minor planets and routine data on comets.  They are published
   on behalf of Commission 20 of the International Astronomical Union by the
          Minor Planet Center, Smithsonian Astrophysical Observatory,
                          Cambridge, MA 02138, U.S.A.

             Prepared using the Tamkin Foundation Computer Network

                              MPC@CFA.HARVARD.EDU
       URL http://www.minorplanetcenter.org/iau/mpc.html  ISSN 1523-6714

                                   2010 NT1

Observations:
     K10N01T* S2010 07 04.07945 11 39 50.05 -43 48 16.8          22   R EN050C51
     K10N01T  s2010 07 04.07945 1 - 4687.7406 - 1396.9975 - 4888.1405   EN050C51
     K10N01T  S2010 07 04.14554 11 40 22.63 -43 45 58.9                 EN050C51
     K10N01T  s2010 07 04.14554 1 - 4655.3779 - 1401.4062 - 4917.6112   EN050C51
     K10N01T  S2010 07 04.21176 11 40 54.92 -43 43 45.7                 EN050C51
     K10N01T  s2010 07 04.21176 1 - 4683.5197 - 1407.7212 - 4888.9663   EN050C51
     K10N01T  S2010 07 04.27784 11 41 27.22 -43 41 27.2                 EN050C51
     K10N01T  s2010 07 04.27784 1 - 4651.7376 - 1411.9898 - 4917.9699   EN050C51
     K10N01T  S2010 07 04.27797 11 41 27.35 -43 41 29.1                 EN050C51
     K10N01T  s2010 07 04.27797 1 - 4711.7028 - 1413.9946 - 4859.9356   EN050C51
     K10N01T  S2010 07 04.34406 11 41 59.67 -43 39 10.0                 EN050C51
     K10N01T  s2010 07 04.34406 1 - 4680.3573 - 1418.3220 - 4889.0091   EN050C51
     K10N01T  S2010 07 04.47636 11 43 04.18 -43 34 33.8                 EN050C51
     K10N01T  s2010 07 04.47636 1 - 4676.5176 - 1428.6004 - 4889.9546   EN050C51
     K10N01T  S2010 07 04.60867 11 44 08.77 -43 29 55.9                 EN050C51
     K10N01T  s2010 07 04.60867 1 - 4671.3035 - 1439.1451 - 4891.7393   EN050C51
     K10N01T  S2010 07 04.60879 11 44 08.85 -43 29 56.7                 EN050C51
     K10N01T  s2010 07 04.60879 1 - 4730.9434 - 1441.3962 - 4833.3813   EN050C51
     K10N01T  S2010 07 04.67488 11 44 40.99 -43 27 36.6                 EN050C51
     K10N01T  s2010 07 04.67488 1 - 4699.1794 - 1445.8130 - 4863.0352   EN050C51
     K10N01T  S2010 07 04.74110 11 45 13.31 -43 25 16.3                 EN050C51
     K10N01T  s2010 07 04.74110 1 - 4727.3036 - 1452.5099 - 4833.7349   EN050C51
     K10N01T  S2010 07 05.00571 11 47 22.08 -43 15 48.5          22   R EN050C51
     K10N01T  s2010 07 05.00571 1 - 4719.6171 - 1473.7046 - 4834.8609   EN050C51
     K10N01T  S2010 07 05.13801 11 48 26.50 -43 11 01.6                 EN050C51
     K10N01T  s2010 07 05.13801 1 - 4714.5837 - 1484.4604 - 4836.2736   EN050C51
     K10N01T  S2010 07 05.20422 11 48 58.82 -43 08 36.9                 EN050C51
     K10N01T  s2010 07 05.20422 1 - 4742.1700 - 1491.2046 - 4807.0935   EN050C51
     K10N01T  S2010 07 05.27031 11 49 30.67 -43 06 11.9                 EN050C51
     K10N01T  s2010 07 05.27031 1 - 4710.8193 - 1495.1765 - 4836.5818   EN050C51
     K10N01T  S2010 07 05.33653 11 50 02.86 -43 03 46.4                 EN050C51
     K10N01T  s2010 07 05.33653 1 - 4738.8282 - 1501.9342 - 4807.1202   EN050C51
     K10N01T 2C2010 07 11.24816312 36 21.527-38 54 10.49         19.8 R EN050568
     K10N01T 2C2010 07 11.24965312 36 22.194-38 54 06.17         19.9 R EN050568
     K10N01T 2C2010 07 11.25113912 36 22.847-38 54 01.94         19.8 R EN050568
     K10N01T 2C2010 07 11.25266812 36 23.532-38 53 57.50         19.7 R EN050568
     K10N01T 2C2010 07 11.25428612 36 24.264-38 53 52.77         19.8 R EN050568
     K10N01T 2C2010 07 11.25581412 36 24.926-38 53 48.51         19.7 R EN050568

Observer details:
568 Mauna Kea.  Observer J. Luthe.  Measurer D. J. Tholen.  3.6-m
    Canada-France-Hawaii Telescope.
C51 WISE.  Measurers A. Mainzer, E. Wright, J. Bauer, T. Grav, J. Dailey, J.
    Masiero, R. Cutri, R. McMillan, R. Walker.
    (http://wise.ssl.berkeley.edu/mission_sci.html)

Orbital elements:
2010 NT1                                                 Earth MOID = 0.2063 AU
Epoch 2010 July 23.0 TT = JDT 2455400.5                 MPC
M  27.91317              (2000.0)            P               Q
n   0.56073312     Peri.  306.15018     -0.47036577     +0.62899179
a   1.4564601      Node   283.32201     -0.45407481     -0.77393564
e   0.2174495      Incl.   39.50073     -0.75668495     +0.07343674
P   1.76           H   19.2           G   0.15           U   9
Residuals in seconds of arc
100704 C51  1.9-  0.4-    100704 C51  0.5+  0.4-    100711 568  0.0   0.0
100704 C51  0.8+  1.9+    100704 C51  0.5-  0.3-    100711 568  0.0   0.0
100704 C51  0.2-  1.0-    100704 C51  0.0   0.5-    100711 568  0.0   0.0
100704 C51  0.2-  0.8+    100705 C51  0.8-  0.4-    100711 568  0.0   0.0
100704 C51  0.6+  1.1-    100705 C51  0.2+  0.5-    100711 568  0.2+  0.1+
100704 C51  0.9+  0.8+    100705 C51  1.9+  0.2-    100711 568  0.0   0.0
100704 C51  0.1-  0.9+    100705 C51  0.8-  0.0
100704 C51  0.2+  0.4+    100705 C51  0.3-  0.0

Ephemeris:
2010 NT1                 a,e,i = 1.46, 0.22, 40                  q = 1.1398
Date    TT    R. A. (2000) Decl.     Delta      r     Elong.  Phase     V
2010 07 03    11 31.02   -44 23.9    0.504    1.161    93.4    60.9    20.2
2010 07 13    12 49.34   -37 29.2    0.498    1.177    95.9    59.2    20.2
2010 07 23    13 54.89   -28 39.1    0.526    1.197    96.7    57.4    20.3
2010 08 02    14 46.28   -20 03.9    0.584    1.220    95.7    55.8    20.5
2010 08 12    15 26.85   -12 56.8    0.665    1.246    93.6    54.2    20.8
2010 08 22    16 00.22   -07 28.0    0.761    1.274    90.8    52.5    21.1
2010 09 01    16 28.97   -03 20.1    0.865    1.304    87.8    50.7    21.3
2010 09 11    16 54.89   -00 11.9    0.973    1.335    84.8    48.7    21.6
2010 09 21    17 19.13   +02 14.6    1.081    1.366    81.8    46.7    21.8
2010 10 01    17 42.44   +04 12.9    1.187    1.398    78.9    44.7    22.0
2010 10 11    18 05.33   +05 53.0    1.290    1.430    76.2    42.7    22.2
2010 10 21    18 28.15   +07 22.5    1.388    1.461    73.5    40.8    22.3
2010 10 31    18 51.09   +08 46.8    1.482    1.492    71.0    39.0    22.5
2010 11 10    19 14.33   +10 09.7    1.572    1.521    68.6    37.3    22.6
2010 11 20    19 37.94   +11 34.6    1.657    1.550    66.2    35.7    22.7
2010 11 30    20 01.97   +13 03.1    1.738    1.577    63.9    34.2    22.8
2010 12 10    20 26.46   +14 36.5    1.815    1.603    61.7    32.7    22.9
2010 12 20    20 51.39   +16 15.5    1.890    1.627    59.4    31.4    23.0

Carl W. Hergenrother         (C) Copyright 2010 MPC           M.P.E.C. 2010-N50

Read MPEC 2010-N49 Read MPEC 2010-N51


MPEC number:

Enter an MPEC number in one of the following forms:

  • 1997-B01 (the full form)
  • J97B01 (the packed version of the full form)
  • B01 (the abbreviated form)

Valid HTML 4.01!